Flag for New Zealand Weather past 2 weeks in Auckland, New Zealand

Now
52 °F

Cool.


Feels Like: 51 °F
Forecast: 53 / 67 °F
Wind: 3 mph from Northeast

Location: Auckland Airport


UV Index: 0 (Low)

Visibility: N/A


Pressure: 30.15 "Hg

Humidity: 94%

Dew point: 50 °F

Location of AucklandLocation

Historic Weather in Auckland

°F

Auckland temperature yesterday

Maximum temperature yesterday: 66 °F (at 1:00 PM)
Minimum temperature yesterday: 54 °F (at 6:00 AM)
Average temperature yesterday: 59 °F

Past Weeks' High & Low Weather Summary

 TemperatureHumidityPressure
High75 °F (Apr 10, 3:00 PM)100% (Apr 10, 4:30 AM)30.21 "Hg (Apr 10, 4:30 AM)
Low50 °F (Apr 24, 2:00 AM)53% (Apr 13, 12:00 PM)29.36 "Hg (Apr 17, 10:30 AM)
Average65 °F83%29.93 "Hg
* Reported Apr 9 3:00 AM — Apr 24 3:30 AM, Auckland, Weather by CustomWeather, © 2014

Note: Actual official high and low records may vary slightly from our data, if they occured in-between our weather recording intervals... More about our weather records

Advertising

Historic Weather Conditions — Data for Previous 24 hours

 ConditionsComfort  
Time TempWeatherWind HumidityBarometerVisibility
3:30 AM
Apr 24
52 °FCool.3 mph94%30.15 "HgN/A
3:00 AM50 °FCool.3 mph100%30.15 "HgN/A
2:30 AM50 °FCool.3 mph100%30.18 "HgN/A
2:00 AM50 °FCool.3 mph94%30.18 "HgN/A
1:30 AM52 °FPassing clouds.2 mph94%30.18 "HgN/A
1:00 AM54 °FPassing clouds.1 mph94%30.18 "HgN/A
12:30 AM54 °FPassing clouds.2 mph94%30.18 "HgN/A
12:00 AM52 °FPassing clouds.3 mph94%30.18 "HgN/A
11:30 PM
Apr 23
54 °FCool.3 mph94%30.18 "HgN/A
11:00 PM55 °FPassing clouds.1 mph88%30.18 "HgN/A
10:30 PM55 °FPassing clouds.2 mph88%30.18 "HgN/A
10:00 PM55 °FPassing clouds.3 mph88%30.18 "HgN/A
9:30 PM57 °FPassing clouds.2 mph82%30.18 "HgN/A
9:00 PM57 °FPassing clouds.5 mph77%30.18 "HgN/A
8:30 PM59 °FPassing clouds.6 mph77%30.18 "HgN/A
8:00 PM59 °FPassing clouds.5 mph72%30.18 "HgN/A
7:30 PM59 °FCool.5 mph72%30.18 "HgN/A
7:00 PM59 °FCool.6 mph72%30.15 "HgN/A
6:30 PM61 °FPassing clouds.9 mph68%30.15 "HgN/A
6:00 PM61 °FPassing clouds.10 mph68%30.15 "HgN/A
5:30 PM63 °FMostly cloudy.9 mph64%30.15 "HgN/A
5:00 PM63 °FPassing clouds.10 mph68%30.15 "HgN/A
4:30 PM64 °FMild.12 mph56%30.15 "HgN/A
4:00 PM64 °FMild.13 mph64%30.15 "HgN/A
3:30 PM66 °FPassing clouds.14 mph60%30.15 "HgN/A
2:30 PM66 °FPassing clouds.13 mph56%30.15 "HgN/A
2:00 PM66 °FPartly sunny.12 mph56%30.15 "HgN/A
1:30 PM66 °FPartly sunny.8 mph56%30.15 "HgN/A
1:00 PM66 °FPartly sunny.7 mph60%30.15 "HgN/A
12:30 PM64 °FScattered clouds.6 mph60%30.15 "HgN/A
12:00 PM64 °FMild.6 mph64%30.18 "HgN/A
11:30 AM63 °FScattered clouds.6 mph68%30.18 "HgN/A
11:00 AM63 °FPartly sunny.3 mph68%30.18 "HgN/A
10:30 AM63 °FPartly sunny.3 mph64%30.18 "HgN/A
10:00 AM63 °FPassing clouds.2 mph64%30.18 "HgN/A
9:30 AM63 °FMild.1 mph64%30.18 "HgN/A
9:00 AM61 °FCool.2 mph68%30.18 "HgN/A
8:30 AM57 °FScattered clouds.3 mph82%30.18 "HgN/A
8:00 AM55 °FSprinkles. Mostly cloudy.3 mph88%30.15 "HgN/A
7:30 AM55 °FMostly cloudy.3 mph88%30.15 "HgN/A
7:00 AM54 °FOvercast.3 mph88%30.15 "HgN/A
6:30 AM54 °FScattered clouds.2 mph88%30.15 "HgN/A
6:00 AM54 °FScattered clouds.2 mph88%30.15 "HgN/A
5:30 AM55 °FPassing clouds.3 mph88%30.15 "HgN/A
5:00 AM55 °FPassing clouds.5 mph88%30.15 "HgN/A
4:30 AM57 °FPassing clouds.8 mph88%30.12 "HgN/A
4:00 AM55 °FSprinkles. Passing clouds.7 mph88%30.12 "HgN/A
Weather by CustomWeather, © 2014

See weather overview